This demonstration page uses our WeatherBlox Daily Observations layout. Learn more.

Hourly Observations for September 4, 2019

Temp ( °F °C ) Dew Point ( °F °C ) Humidity (%) Winds ( mph kmh ) Pressure ( in mb ) Visibility ( mi km ) Precip ( " mm )
12:15 am 00:15 Clear 70 21 68 20 94 94 Calm 30.03 1017 10 16.09344 0 0
12:35 am 00:35 Clear 70 21 68 20 94 94 S 5 7 30.03 1017 10 16.09344 0 0
12:55 am 00:55 Clear 72 22 68 20 88 88 S 3 6 30.03 1017 10 16.09344 0 0
1:15 am 01:15 Clear 70 21 68 20 94 94 Calm 30.03 1017 10 16.09344 0 0
1:35 am 01:35 Clear 72 22 68 20 88 88 S 6 9 30 1016 10 16.09344 0 0
1:55 am 01:55 Clear 70 21 68 20 94 94 SW 3 6 30 1016 10 16.09344 0 0
2:15 am 02:15 Clear 70 21 68 20 94 94 SSW 5 7 30 1016 10 16.09344 0 0
2:35 am 02:35 Clear 70 21 68 20 94 94 S 5 7 30 1016 10 16.09344 0 0
2:55 am 02:55 Clear 70 21 68 20 94 94 S 3 6 30 1016 10 16.09344 0 0
3:15 am 03:15 Clear 70 21 68 20 94 94 S 6 9 30 1016 10 16.09344 0 0
3:35 am 03:35 Clear 70 21 68 20 94 94 S 6 9 30 1016 10 16.09344 0 0
3:55 am 03:55 Clear 68 20 68 20 100 100 SSW 6 9 30 1016 10 16.09344 0 0
4:15 am 04:15 Clear 68 20 68 20 100 100 S 6 9 30 1016 10 16.09344 0 0
4:35 am 04:35 Clear 68 20 68 20 100 100 S 5 7 30 1016 10 16.09344 0 0
4:55 am 04:55 Clear 70 21 70 21 100 100 S 5 7 30 1016 10 16.09344 0 0
5:15 am 05:15 Clear 68 20 68 20 100 100 SSW 3 6 30 1016 10 16.09344 0 0
5:35 am 05:35 Clear 68 20 68 20 100 100 SSW 5 7 30 1016 7 11.265408 0 0
5:55 am 05:55 Clear 64 18 64 18 100 100 S 3 6 30 1016 7 11.265408 0 0
6:15 am 06:15 Clear 68 20 68 20 100 100 SSW 3 6 30 1016 7 11.265408 0 0
6:35 am 06:35 Mostly Cloudy 66 19 66 19 100 100 SSW 5 7 30 1016 7 11.265408 0 0
6:55 am 06:55 Cloudy 68 20 68 20 100 100 SSW 9 15 30 1016 7 11.265408 0 0
7:15 am 07:15 Cloudy 68 20 68 20 100 100 SW 8 13 30 1016 7 11.265408 0 0
7:35 am 07:35 Mostly Cloudy 68 20 68 20 100 100 SW 6 9 30.03 1017 5 8.04672 0 0
7:55 am 07:55 Partly Cloudy 68 20 68 20 100 100 WSW 5 7 30.03 1017 7 11.265408 0 0
8:15 am 08:15 Sunny 70 21 70 21 100 100 W 5 7 30.03 1017 10 16.09344 0 0
8:35 am 08:35 Sunny 70 21 70 21 100 100 WSW 6 9 30 1016 10 16.09344 0 0
8:55 am 08:55 Sunny 72 22 70 21 94 94 WSW 6 9 30 1016 10 16.09344 0 0
9:15 am 09:15 Sunny 73 23 72 22 94 94 SW 9 15 30 1016 10 16.09344 0 0
9:35 am 09:35 Sunny 77 25 70 21 79 79 SW 10 17 30 1016 10 16.09344 0 0
9:55 am 09:55 Sunny 79 26 70 21 74 74 SW 8 13 30 1016 10 16.09344 0 0
10:15 am 10:15 Sunny 81 27 72 22 74 74 SW 9 15 30 1016 10 16.09344 0 0
10:35 am 10:35 Sunny 82 28 70 21 66 66 SW 10 17 30 1016 10 16.09344 0 0
10:55 am 10:55 Sunny 82 28 70 21 66 66 SSW 10 17 29.97 1015 10 16.09344 0 0
11:15 am 11:15 Sunny 84 29 72 22 66 66 SW 10 17 29.97 1015 10 16.09344 0 0
11:35 am 11:35 Sunny 86 30 72 22 62 62 SSW 9 15 29.94 1014 10 16.09344 0 0
11:55 am 11:55 Sunny 88 31 72 22 59 59 SSW 9 15 29.94 1014 10 16.09344 0 0
12:15 pm 12:15 Sunny with Thunderstorms 88 31 70 21 55 55 WSW 10 17 29.94 1014 10 16.09344 0 0
12:35 pm 12:35 Sunny 90 32 70 21 52 52 WSW 10 17 29.94 1014 10 16.09344 0 0
12:55 pm 12:55 Sunny 90 32 70 21 52 52 WSW 9 15 29.91 1013 10 16.09344 0 0
1:15 pm 13:15 Sunny 91 33 70 21 49 49 SW 12 19 29.91 1013 10 16.09344 0 0
1:35 pm 13:35 Sunny 90 32 72 22 55 55 SW 15 24 29.91 1013 10 16.09344 0 0
1:55 pm 13:55 Partly Cloudy 91 33 70 21 49 49 WSW 9 15 29.91 1013 10 16.09344 0 0
2:15 pm 14:15 Partly Cloudy 91 33 70 21 49 49 WSW 7 11 29.91 1013 10 16.09344 0 0
2:35 pm 14:35 Mostly Cloudy 91 33 72 22 52 52 SSW 9 15 29.88 1012 10 16.09344 0 0
2:55 pm 14:55 Partly Cloudy 91 33 72 22 52 52 WSW 10 17 29.88 1012 10 16.09344 0 0
3:15 pm 15:15 Partly Cloudy 93 34 72 22 49 49 SSW 10 17 29.88 1012 10 16.09344 0 0
3:35 pm 15:35 Partly Cloudy 91 33 72 22 52 52 W 9 15 29.88 1012 10 16.09344 0 0
3:55 pm 15:55 Partly Cloudy 93 34 72 22 49 49 WSW 8 13 29.88 1012 10 16.09344 0 0
4:15 pm 16:15 Partly Cloudy 93 34 72 22 49 49 SW 7 11 29.88 1012 N/A 0 0
4:35 pm 16:35 Sunny 91 33 72 22 52 52 SW 9 15 29.88 1012 N/A 0 0
4:55 pm 16:55 Partly Cloudy 91 33 72 22 52 52 SSW 7 11 29.88 1012 N/A 0 0
5:15 pm 17:15 Mostly Cloudy 91 33 72 22 52 52 SW 6 9 29.88 1012 N/A 0 0
5:35 pm 17:35 Partly Cloudy 91 33 72 22 52 52 SW 5 7 29.88 1012 N/A 0 0
5:55 pm 17:55 Mostly Cloudy 90 32 73 23 59 59 SW 3 6 29.88 1012 N/A 0 0
6:35 pm 18:35 Sunny 90 32 73 23 59 59 Calm 29.88 1012 N/A 0 0
6:55 pm 18:55 Mostly Cloudy 90 32 73 23 59 59 WSW 5 7 29.91 1013 N/A 0 0
7:15 pm 19:15 Mostly Cloudy 88 31 73 23 62 62 WSW 3 6 29.91 1013 N/A 0 0
7:35 pm 19:35 Mostly Cloudy 86 30 77 25 75 75 WNW 3 6 29.91 1013 N/A 0 0
7:55 pm 19:55 Mostly Cloudy 86 30 75 24 70 70 N 5 7 29.91 1013 N/A 0 0
8:15 pm 20:15 Mostly Cloudy 84 29 75 24 74 74 N 5 7 29.94 1014 N/A 0 0
8:35 pm 20:35 Partly Cloudy 84 29 73 23 70 70 N 6 9 29.94 1014 N/A 0 0
8:55 pm 20:55 Partly Cloudy 86 30 68 20 55 55 N 8 13 29.91 1013 10 16.09344 0 0
9:15 pm 21:15 Partly Cloudy 84 29 68 20 58 58 N 6 9 29.97 1015 10 16.09344 0 0
9:35 pm 21:35 Partly Cloudy 82 28 68 20 62 62 N 7 11 29.97 1015 10 16.09344 0 0
9:55 pm 21:55 Clear 82 28 68 20 62 62 N 6 9 29.97 1015 10 16.09344 0 0
10:15 pm 22:15 Clear 81 27 68 20 66 66 N 6 9 29.97 1015 10 16.09344 0 0
10:35 pm 22:35 Clear 81 27 66 19 62 62 NNE 8 13 29.97 1015 10 16.09344 0 0
10:55 pm 22:55 Clear 81 27 66 19 62 62 NNE 3 6 29.97 1015 10 16.09344 0 0
11:15 pm 23:15 Clear 81 27 66 19 62 62 Calm 29.97 1015 10 16.09344 0 0
11:35 pm 23:35 Partly Cloudy 79 26 66 19 65 65 NNE 6 9 30 1016 10 16.09344 0 0
11:55 pm 23:55 Partly Cloudy 79 26 64 18 61 61 NNE 3 6 30 1016 10 16.09344 0 0

Powered by AerisWeather